• In Czech Republic
  • List of Countries
  • For 7 days
  • Water Temperature
  • Satellite Maps
  • Weather Map
  • Weather Widgets
  • user-avatar
    Login

    Hourly Weather Amar

    Today, 26 September, Tuesday

    Time Temperature Precipitation Wind Pressure Humidity
    00:00 +32°C° 0 mm 1 mps 752 mmHg 48%
    01:00 +31°C° 0 mm 1 mps 752 mmHg 47%
    02:00 +31°C° 0 mm 2 mps 752 mmHg 46%
    03:00 +31°C° 0 mm 1 mps 752 mmHg 47%
    04:00 +31°C° 0 mm 2 mps 752 mmHg 46%
    05:00 +31°C° 0 mm 2 mps 752 mmHg 44%
    06:00 +31°C° 0 mm 3 mps 753 mmHg 42%
    07:00 +34°C° 0 mm 3 mps 753 mmHg 36%
    08:00 +36°C° 0 mm 3 mps 753 mmHg 30%
    09:00 +38°C° 0 mm 3 mps 753 mmHg 28%
    10:00 +39°C° 0 mm 3 mps 753 mmHg 24%
    11:00 +42°C° 0 mm 3 mps 753 mmHg 20%
    12:00 +43°C° 0 mm 4 mps 753 mmHg 16%
    13:00 +43°C° 0 mm 4 mps 753 mmHg 16%
    14:00 +43°C° 0 mm 4 mps 752 mmHg 16%
    15:00 +43°C° 0 mm 4 mps 752 mmHg 16%
    16:00 +40°C° 0 mm 3 mps 752 mmHg 20%
    17:00 +39°C° 0 mm 3 mps 752 mmHg 23%
    18:00 +37°C° 0 mm 3 mps 752 mmHg 27%
    19:00 +36°C° 0 mm 2 mps 752 mmHg 29%
    20:00 +36°C° 0 mm 2 mps 753 mmHg 31%
    21:00 +34°C° 0 mm 1 mps 753 mmHg 33%
    22:00 +33°C° 0 mm 1 mps 753 mmHg 33%
    23:00 +32°C° 0 mm 1 mps 753 mmHg 33%

    Tomorrow, 27 September, Wednesday

    Time Temperature Precipitation Wind Pressure Humidity
    00:00 +32°C° 0 mm 1 mps 753 mmHg 33%
    01:00 +32°C° 0 mm 1 mps 753 mmHg 33%
    02:00 +32°C° 0 mm 1 mps 753 mmHg 33%
    03:00 +31°C° 0 mm 1 mps 753 mmHg 34%
    04:00 +31°C° 0 mm 1 mps 753 mmHg 34%
    05:00 +31°C° 0 mm 2 mps 753 mmHg 34%
    06:00 +31°C° 0 mm 2 mps 753 mmHg 34%
    07:00 +34°C° 0 mm 2 mps 754 mmHg 30%
    08:00 +36°C° 0 mm 2 mps 754 mmHg 25%
    09:00 +39°C° 0 mm 2 mps 754 mmHg 21%
    10:00 +39°C° 0 mm 2 mps 754 mmHg 19%
    11:00 +40°C° 0 mm 2 mps 754 mmHg 18%
    12:00 +41°C° 0 mm 2 mps 754 mmHg 16%
    13:00 +41°C° 0 mm 2 mps 753 mmHg 17%
    14:00 +42°C° 0 mm 3 mps 753 mmHg 17%
    15:00 +43°C° 0 mm 3 mps 753 mmHg 17%
    16:00 +40°C° 0 mm 3 mps 753 mmHg 22%
    17:00 +39°C° 0 mm 3 mps 753 mmHg 27%
    18:00 +37°C° 0 mm 3 mps 753 mmHg 31%
    19:00 +36°C° 0 mm 3 mps 753 mmHg 35%
    20:00 +36°C° 0 mm 3 mps 753 mmHg 39%
    21:00 +35°C° 0 mm 3 mps 754 mmHg 42%
    22:00 +35°C° 0 mm 2 mps 753 mmHg 45%
    23:00 +34°C° 0 mm 2 mps 753 mmHg 48%

    Day after tomorrow, 28 September, Thursday

    Time Temperature Precipitation Wind Pressure Humidity
    00:00 +34°C° 0 mm 2 mps 753 mmHg 51%
    01:00 +32°C° 0 mm 2 mps 753 mmHg 50%
    02:00 +32°C° 0 mm 2 mps 753 mmHg 50%
    03:00 +32°C° 0 mm 2 mps 752 mmHg 50%
    04:00 +32°C° 0 mm 2 mps 753 mmHg 48%
    05:00 +32°C° 0 mm 2 mps 753 mmHg 47%
    06:00 +31°C° 0 mm 2 mps 753 mmHg 45%
    07:00 +34°C° 0 mm 2 mps 754 mmHg 40%
    08:00 +36°C° 0 mm 2 mps 754 mmHg 34%
    09:00 +38°C° 0 mm 3 mps 755 mmHg 29%
    10:00 +39°C° 0 mm 2 mps 754 mmHg 26%
    11:00 +40°C° 0 mm 2 mps 754 mmHg 23%
    12:00 +41°C° 0 mm 2 mps 754 mmHg 20%
    13:00 +41°C° 0 mm 2 mps 753 mmHg 19%
    14:00 +41°C° 0 mm 2 mps 753 mmHg 18%
    15:00 +43°C° 0 mm 3 mps 752 mmHg 16%
    16:00 +40°C° 0 mm 3 mps 752 mmHg 20%
    17:00 +39°C° 0 mm 3 mps 752 mmHg 24%
    18:00 +37°C° 0 mm 3 mps 752 mmHg 28%
    19:00 +36°C° 0 mm 2 mps 753 mmHg 30%
    20:00 +36°C° 0 mm 2 mps 753 mmHg 32%
    21:00 +35°C° 0 mm 2 mps 753 mmHg 34%
    22:00 +33°C° 0 mm 1 mps 753 mmHg 36%
    23:00 +32°C° 0 mm 1 mps 753 mmHg 38%

    29 September, Friday

    Time Temperature Precipitation Wind Pressure Humidity
    00:00 +31°C° 0 mm 1 mps 752 mmHg 39%
    01:00 +31°C° 0 mm 1 mps 752 mmHg 39%
    02:00 +31°C° 0 mm 1 mps 752 mmHg 38%
    03:00 +31°C° 0 mm 2 mps 752 mmHg 37%
    04:00 +32°C° 0 mm 2 mps 752 mmHg 36%
    05:00 +33°C° 0 mm 3 mps 752 mmHg 35%
    06:00 +33°C° 0 mm 3 mps 753 mmHg 34%
    07:00 +35°C° 0 mm 3 mps 753 mmHg 30%
    08:00 +37°C° 0 mm 3 mps 753 mmHg 25%
    09:00 +39°C° 0 mm 3 mps 754 mmHg 20%
    10:00 +40°C° 0 mm 3 mps 753 mmHg 19%
    11:00 +41°C° 0 mm 2 mps 753 mmHg 17%
    12:00 +42°C° 0 mm 2 mps 752 mmHg 15%
    13:00 +42°C° 0 mm 2 mps 752 mmHg 15%
    14:00 +42°C° 0 mm 2 mps 751 mmHg 14%
    15:00 +44°C° 0 mm 3 mps 751 mmHg 14%
    16:00 +41°C° 0 mm 2 mps 751 mmHg 17%
    17:00 +39°C° 0 mm 2 mps 751 mmHg 20%
    18:00 +38°C° 0 mm 2 mps 751 mmHg 22%
    19:00 +37°C° 0 mm 2 mps 752 mmHg 27%
    20:00 +36°C° 0 mm 2 mps 752 mmHg 31%
    21:00 +36°C° 0 mm 3 mps 753 mmHg 35%
    22:00 +35°C° 0 mm 2 mps 753 mmHg 40%
    23:00 +33°C° 0 mm 1 mps 752 mmHg 44%

    30 September, Saturday

    Time Temperature Precipitation Wind Pressure Humidity
    00:00 +30°C° 0 mm 0 mps 752 mmHg 49%
    01:00 +32°C° 0 mm 1 mps 752 mmHg 47%
    02:00 +31°C° 0 mm 1 mps 752 mmHg 46%
    03:00 +31°C° 0 mm 2 mps 752 mmHg 44%
    04:00 +31°C° 0 mm 2 mps 752 mmHg 44%
    05:00 +31°C° 0 mm 2 mps 753 mmHg 44%
    06:00 +31°C° 0 mm 2 mps 753 mmHg 43%
    07:00 +34°C° 0 mm 2 mps 753 mmHg 39%
    08:00 +36°C° 0 mm 2 mps 754 mmHg 35%
    09:00 +37°C° 0 mm 1 mps 754 mmHg 30%
    10:00 +39°C° 0 mm 1 mps 754 mmHg 28%
    11:00 +40°C° 0 mm 1 mps 753 mmHg 26%
    12:00 +41°C° 0 mm 1 mps 753 mmHg 23%
    13:00 +41°C° 0 mm 2 mps 753 mmHg 23%
    14:00 +41°C° 0 mm 2 mps 752 mmHg 22%
    15:00 +42°C° 0 mm 3 mps 752 mmHg 22%
    16:00 +40°C° 0 mm 3 mps 752 mmHg 27%
    17:00 +38°C° 0 mm 4 mps 752 mmHg 31%
    18:00 +37°C° 0 mm 4 mps 752 mmHg 36%
    19:00 +36°C° 0 mm 4 mps 753 mmHg 40%
    20:00 +36°C° 0 mm 4 mps 753 mmHg 44%
    21:00 +35°C° 0 mm 4 mps 754 mmHg 48%
    22:00 +35°C° 0 mm 3 mps 753 mmHg 48%
    23:00 +34°C° 0 mm 3 mps 753 mmHg 49%

    1 October, Sunday

    Time Temperature Precipitation Wind Pressure Humidity
    00:00 +34°C° 0 mm 2 mps 753 mmHg 49%
    01:00 +32°C° 0 mm 1 mps 753 mmHg 49%
    02:00 +31°C° 0 mm 1 mps 753 mmHg 50%
    03:00 +28°C° 0 mm 0 mps 753 mmHg 50%
    04:00 +28°C° 0 mm 0 mps 753 mmHg 50%
    05:00 +28°C° 0 mm 0 mps 754 mmHg 49%
    06:00 +28°C° 0 mm 0 mps 754 mmHg 48%
    07:00 +30°C° 0 mm 0 mps 755 mmHg 43%
    08:00 +32°C° 0 mm 0 mps 755 mmHg 38%
    09:00 +35°C° 0 mm 0 mps 755 mmHg 32%
    10:00 +37°C° 0 mm 1 mps 755 mmHg 29%
    11:00 +39°C° 0 mm 1 mps 755 mmHg 26%
    12:00 +40°C° 0 mm 1 mps 754 mmHg 23%
    13:00 +41°C° 0 mm 2 mps 754 mmHg 22%
    14:00 +42°C° 0 mm 3 mps 753 mmHg 21%
    15:00 +42°C° 0 mm 3 mps 753 mmHg 20%
    16:00 +40°C° 0 mm 3 mps 753 mmHg 24%
    17:00 +38°C° 0 mm 4 mps 753 mmHg 29%
    18:00 +37°C° 0 mm 4 mps 753 mmHg 34%
    19:00 +36°C° 0 mm 4 mps 753 mmHg 39%
    20:00 +36°C° 0 mm 4 mps 754 mmHg 43%
    21:00 +35°C° 0 mm 3 mps 754 mmHg 48%
    22:00 +34°C° 0 mm 3 mps 753 mmHg 49%
    23:00 +34°C° 0 mm 2 mps 753 mmHg 51%
    Show more